Back to catalog

STARLINK-31707

AliveCommunicationsVLEO
NORAD 59736·PAYLOAD·🇺🇸 United States

Launched May 13, 2024 from Cape Canaveral Space Force Station

Loading…

Next Passes (next 24 hours)

TLE

FreshSource: CelesTrak SupGP

Epoch: Sep 14, 2026, 14:31 UTC

1 59736C 24090G   26257.60534722 -.00004193  00000+0 -15193-3 0  2573
2 59736  43.0019 196.5316 0001420 266.2919  75.4934 15.27568107    17

Track STARLINK-31707 in real time with AllMySat

Download on the App Store